• In Hungary
  • List of Countries
  • For 7 days
  • Water Temperature
  • Satellite Maps
  • Weather Map
  • News
  • Weather Widgets
  • user-avatar
    Login

    Hourly Weather Zhuravlino-Vershina

    Today, 15 August, Wednesday

    Time Temperature Precipitation Wind Pressure Humidity
    00:00 +19°C° 0 mm 1 mps 748 mmHg 70%
    01:00 +19°C° 0 mm 1 mps 748 mmHg 71%
    02:00 +18°C° 0 mm 1 mps 748 mmHg 72%
    03:00 +18°C° 0 mm 1 mps 748 mmHg 73%
    04:00 +18°C° 0 mm 1 mps 748 mmHg 73%
    05:00 +18°C° 0 mm 1 mps 748 mmHg 74%
    06:00 +17°C° 0 mm 2 mps 749 mmHg 75%
    07:00 +19°C° 0 mm 2 mps 749 mmHg 68%
    08:00 +21°C° 0 mm 2 mps 749 mmHg 62%
    09:00 +24°C° 0 mm 3 mps 749 mmHg 56%
    10:00 +25°C° 0 mm 3 mps 749 mmHg 52%
    11:00 +27°C° 0 mm 3 mps 749 mmHg 48%
    12:00 +28°C° 0 mm 3 mps 749 mmHg 44%
    13:00 +28°C° 0 mm 3 mps 749 mmHg 43%
    14:00 +29°C° 0 mm 3 mps 748 mmHg 42%
    15:00 +29°C° 0 mm 3 mps 748 mmHg 42%
    16:00 +29°C° 0 mm 3 mps 748 mmHg 44%
    17:00 +29°C° 0 mm 2 mps 748 mmHg 47%
    18:00 +28°C° 0 mm 2 mps 748 mmHg 50%
    19:00 +27°C° 0 mm 2 mps 748 mmHg 53%
    20:00 +25°C° 0 mm 3 mps 748 mmHg 56%
    21:00 +22°C° 0 mm 3 mps 748 mmHg 59%
    22:00 +22°C° 0 mm 3 mps 747 mmHg 60%
    23:00 +21°C° 0 mm 3 mps 747 mmHg 60%

    Tomorrow, 16 August, Thursday

    Time Temperature Precipitation Wind Pressure Humidity
    00:00 +21°C° 0 mm 3 mps 747 mmHg 61%
    01:00 +20°C° 0 mm 3 mps 747 mmHg 62%
    02:00 +20°C° 0 mm 3 mps 747 mmHg 62%
    03:00 +20°C° 0 mm 3 mps 747 mmHg 63%
    04:00 +20°C° 0 mm 3 mps 747 mmHg 64%
    05:00 +19°C° 0 mm 3 mps 747 mmHg 65%
    06:00 +19°C° 0 mm 3 mps 747 mmHg 66%
    07:00 +21°C° 0 mm 3 mps 747 mmHg 61%
    08:00 +23°C° 0 mm 4 mps 748 mmHg 57%
    09:00 +26°C° 0 mm 4 mps 748 mmHg 53%
    10:00 +27°C° 0 mm 4 mps 748 mmHg 49%
    11:00 +29°C° 0 mm 4 mps 748 mmHg 45%
    12:00 +30°C° 0 mm 4 mps 748 mmHg 41%
    13:00 +32°C° 0 mm 4 mps 747 mmHg 39%
    14:00 +31°C° 0 mm 3 mps 747 mmHg 38%
    15:00 +31°C° 0 mm 3 mps 747 mmHg 37%
    16:00 +31°C° 0 mm 3 mps 747 mmHg 39%
    17:00 +30°C° 0 mm 2 mps 747 mmHg 42%
    18:00 +30°C° 0 mm 1 mps 746 mmHg 44%
    19:00 +28°C° 0 mm 1 mps 747 mmHg 46%
    20:00 +26°C° 0 mm 1 mps 747 mmHg 48%
    21:00 +25°C° 0 mm 1 mps 747 mmHg 50%
    22:00 +24°C° 0 mm 1 mps 747 mmHg 51%
    23:00 +24°C° 0 mm 2 mps 747 mmHg 52%

    Day after tomorrow, 17 August, Friday

    Time Temperature Precipitation Wind Pressure Humidity
    00:00 +23°C° 0 mm 2 mps 747 mmHg 53%
    01:00 +23°C° 0 mm 2 mps 747 mmHg 54%
    02:00 +23°C° 0 mm 2 mps 747 mmHg 55%
    03:00 +21°C° 0 mm 2 mps 747 mmHg 56%
    04:00 +21°C° 0 mm 2 mps 747 mmHg 59%
    05:00 +21°C° 0 mm 2 mps 747 mmHg 62%
    06:00 +21°C° 0 mm 2 mps 747 mmHg 66%
    07:00 +21°C° 0 mm 2 mps 747 mmHg 65%
    08:00 +23°C° 0 mm 2 mps 747 mmHg 63%
    09:00 +24°C° 0 mm 2 mps 748 mmHg 62%
    10:00 +26°C° 0 mm 2 mps 748 mmHg 58%
    11:00 +27°C° 0 mm 3 mps 747 mmHg 55%
    12:00 +28°C° 0 mm 3 mps 747 mmHg 51%
    13:00 +28°C° 0 mm 3 mps 747 mmHg 50%
    14:00 +29°C° 0 mm 3 mps 747 mmHg 50%
    15:00 +29°C° 0 mm 3 mps 747 mmHg 49%
    16:00 +28°C° 0.5 mm 3 mps 747 mmHg 55%
    17:00 +27°C° 0.5 mm 4 mps 747 mmHg 60%
    18:00 +26°C° 0.5 mm 4 mps 747 mmHg 66%
    19:00 +23°C° 0.3 mm 4 mps 747 mmHg 71%
    20:00 +22°C° 0.3 mm 4 mps 748 mmHg 77%
    21:00 +20°C° 0.3 mm 4 mps 748 mmHg 83%
    22:00 +20°C° 0.1 mm 4 mps 748 mmHg 84%
    23:00 +19°C° 0.1 mm 4 mps 748 mmHg 85%

    18 August, Saturday

    Time Temperature Precipitation Wind Pressure Humidity
    00:00 +19°C° 0.1 mm 4 mps 748 mmHg 86%
    01:00 +18°C° 0 mm 4 mps 748 mmHg 87%
    02:00 +17°C° 0 mm 4 mps 749 mmHg 88%
    03:00 +17°C° 0 mm 4 mps 749 mmHg 90%
    04:00 +17°C° 0 mm 4 mps 749 mmHg 89%
    05:00 +15°C° 0 mm 4 mps 749 mmHg 89%
    06:00 +15°C° 0 mm 4 mps 750 mmHg 89%
    07:00 +17°C° 0 mm 5 mps 750 mmHg 79%
    08:00 +19°C° 0 mm 5 mps 750 mmHg 70%
    09:00 +21°C° 0 mm 6 mps 751 mmHg 61%
    10:00 +21°C° 0 mm 6 mps 751 mmHg 55%
    11:00 +22°C° 0 mm 6 mps 751 mmHg 50%
    12:00 +23°C° 0 mm 6 mps 751 mmHg 44%
    13:00 +23°C° 0 mm 5 mps 750 mmHg 43%
    14:00 +25°C° 0 mm 5 mps 750 mmHg 42%
    15:00 +25°C° 0 mm 5 mps 750 mmHg 41%
    16:00 +23°C° 0 mm 5 mps 750 mmHg 44%
    17:00 +23°C° 0 mm 4 mps 750 mmHg 48%
    18:00 +22°C° 0 mm 4 mps 750 mmHg 51%
    19:00 +20°C° 0 mm 3 mps 751 mmHg 56%
    20:00 +18°C° 0 mm 3 mps 751 mmHg 62%
    21:00 +17°C° 0 mm 3 mps 751 mmHg 67%
    22:00 +16°C° 0 mm 3 mps 751 mmHg 69%
    23:00 +14°C° 0 mm 3 mps 751 mmHg 72%

    19 August, Sunday

    Time Temperature Precipitation Wind Pressure Humidity
    00:00 +14°C° 0 mm 3 mps 751 mmHg 74%
    01:00 +13°C° 0 mm 3 mps 751 mmHg 76%
    02:00 +13°C° 0 mm 3 mps 751 mmHg 78%
    03:00 +13°C° 0 mm 3 mps 751 mmHg 80%
    04:00 +12°C° 0 mm 3 mps 751 mmHg 80%
    05:00 +13°C° 0 mm 2 mps 752 mmHg 80%
    06:00 +13°C° 0 mm 2 mps 752 mmHg 80%
    07:00 +14°C° 0 mm 3 mps 752 mmHg 72%
    08:00 +17°C° 0 mm 3 mps 752 mmHg 64%
    09:00 +19°C° 0 mm 3 mps 752 mmHg 56%
    10:00 +20°C° 0 mm 3 mps 752 mmHg 51%
    11:00 +21°C° 0 mm 3 mps 752 mmHg 46%
    12:00 +22°C° 0 mm 3 mps 751 mmHg 41%
    13:00 +24°C° 0 mm 3 mps 751 mmHg 40%
    14:00 +24°C° 0 mm 3 mps 751 mmHg 38%
    15:00 +25°C° 0 mm 3 mps 750 mmHg 36%
    16:00 +24°C° 0 mm 2 mps 750 mmHg 40%
    17:00 +24°C° 0 mm 2 mps 750 mmHg 43%
    18:00 +23°C° 0 mm 2 mps 750 mmHg 46%
    19:00 +21°C° 0 mm 2 mps 750 mmHg 49%
    20:00 +19°C° 0 mm 2 mps 750 mmHg 53%
    21:00 +17°C° 0 mm 2 mps 750 mmHg 57%
    22:00 +16°C° 0 mm 2 mps 750 mmHg 59%
    23:00 +16°C° 0 mm 2 mps 750 mmHg 61%

    20 August, Monday

    Time Temperature Precipitation Wind Pressure Humidity
    00:00 +15°C° 0 mm 2 mps 750 mmHg 63%
    01:00 +14°C° 0 mm 2 mps 750 mmHg 65%
    02:00 +14°C° 0 mm 2 mps 750 mmHg 67%
    03:00 +14°C° 0 mm 2 mps 750 mmHg 69%
    04:00 +13°C° 0 mm 2 mps 750 mmHg 71%
    05:00 +13°C° 0 mm 2 mps 750 mmHg 73%
    06:00 +13°C° 0 mm 2 mps 750 mmHg 74%
    07:00 +15°C° 0 mm 2 mps 750 mmHg 67%
    08:00 +17°C° 0 mm 2 mps 750 mmHg 60%
    09:00 +20°C° 0 mm 3 mps 750 mmHg 53%
    10:00 +21°C° 0 mm 3 mps 750 mmHg 49%
    11:00 +22°C° 0 mm 3 mps 750 mmHg 44%
    12:00 +24°C° 0 mm 3 mps 749 mmHg 40%
    13:00 +25°C° 0 mm 3 mps 749 mmHg 38%
    14:00 +25°C° 0 mm 3 mps 749 mmHg 36%
    15:00 +26°C° 0 mm 3 mps 748 mmHg 35%
    16:00 +26°C° 0 mm 3 mps 748 mmHg 38%
    17:00 +25°C° 0 mm 2 mps 748 mmHg 41%
    18:00 +25°C° 0 mm 2 mps 748 mmHg 45%
    19:00 +23°C° 0 mm 2 mps 748 mmHg 47%
    20:00 +20°C° 0 mm 2 mps 748 mmHg 49%
    21:00 +19°C° 0 mm 3 mps 748 mmHg 51%
    22:00 +18°C° 0 mm 3 mps 748 mmHg 52%
    23:00 +18°C° 0 mm 3 mps 748 mmHg 52%
    Show more